Regional Weather Roundup
Issued by NWS San Diego, CA

Home | Current Version | Previous Version | Text Only | Print | Product List | Glossary On
Versions: 1 2 3 4 5 6 7 8 9 10 11 12 13 14 15 16 17 18 19 20 21 22 23 24 25 26 27 28 29 30 31 32 33 34 35 36 37 38 39 40 41 42 43 44 45 46 47 48 49 50
000
ASUS46 KSGX 291211
RWRSGX

SAN DIEGO HOURLY WEATHER ROUNDUP
NATIONAL WEATHER SERVICE SAN DIEGO CA
500 AM PDT MON MAY 29 2017

NOTE: "FAIR" INDICATES FEW OR NO CLOUDS BELOW 12,000 FEET WITH NO
SIGNIFICANT WEATHER AND/OR OBSTRUCTIONS TO VISIBILITY.

CAZ042-043-060-061-PZZ750-775-291300-

GREATER SAN DIEGO AREA

CITY           SKY/WX    TMP DP  RH WIND       PRES   REMARKS
SAN DIEGO AP   CLOUDY    61  57  87 NW3       29.94F
NATIONAL CITY    N/A     61  57  86 CALM      29.93S
CHULA VISTA      N/A     60  58  91 W3        29.85S
IMPERIAL BEACH CLOUDY    60  56  86 W7        29.94S
BROWN FIELD    CLOUDY    59  57  93 CALM      29.93S
MIRAMAR MCAS   CLOUDY    62  55  77 CALM      29.93S
MONTGOMERY FLD CLOUDY    60  54  80 NW3       29.93S

$$

NORTH SAN DIEGO COUNTY

CITY           SKY/WX    TMP DP  RH WIND       PRES   REMARKS
CAMP PENDLETON CLOUDY    60  57  89 CALM      29.92F FOG
OCEANSIDE AP   CLOUDY    61  58  90 CALM      29.92S
OCEANSIDE HBR    N/A     60  57  88 CALM      29.95S
VISTA            N/A     59  54  83 CALM      29.90F
CARLSBAD       CLOUDY    60  57  89 W3        29.92S
DEL MAR          N/A     59  57  92 CALM      29.95S
LA JOLLA SCRIP   N/A     59  57  93 CALM      29.93S
FALLBROOK        N/A     57  57 100 CALM      29.94S
ESCONDIDO        N/A     60  56  88 W2        29.93S
SAN MARCOS       N/A     58  54  85 CALM      29.93F
POWAY            N/A     59  55  86 CALM      29.94S

$$

EAST SAN DIEGO COUNTY

CITY           SKY/WX    TMP DP  RH WIND       PRES   REMARKS
RAMONA         FOG       55  55 100 CALM      29.93S VSB 1/4
SANTEE LAKES     N/A     59  56  88 CALM      29.92S
LA MESA          N/A     59  55  88 CALM      29.85S
JAMUL            N/A     57  55  94 CALM      29.92S
DESCANSO N       N/A     52  35  52 NE7       29.82F
CAMPO            N/A     46  40  79 NE3       29.91S

$$

ORANGE COUNTY AND THE LOS ANGELES BASIN

CITY           SKY/WX    TMP DP  RH WIND       PRES   REMARKS
JOHN WAYNE AP  CLOUDY    61  56  83 CALM      29.92F
LAKE FOREST FR   N/A     56  51  85 CALM      29.80F
HUNTINGTON BCH   N/A     59  56  91 W2        29.93F
LOS ALAMITOS   CLOUDY    58  56  91 SW3       29.92S
FULLERTON      CLOUDY    60  57  89 S3        29.91F
LONG BEACH     CLOUDY    61  55  81 SE3       29.92S
L.A. AP        CLOUDY    60  57  89 S3        29.92F
L.A. DOWNTOWN  CLOUDY    61  56  83 CALM      29.91F

$$

THE INLAND EMPIRE

CITY           SKY/WX    TMP DP  RH WIND       PRES   REMARKS
CORONA         PTCLDY    56  54  93 W3        29.93S
CHINO          PTCLDY    56  54  93 CALM      29.93S FOG
ONTARIO        MOCLDY    57  53  86 W6        29.92S
SAN BERNARDINO FAIR      59  50  72 CALM      29.92F
RIVERSIDE AP   PTCLDY    57  54  89 CALM      29.92S
MORENO VALLEY    N/A     56  54  93 CALM      28.04S
MARCH ARB      PTCLDY    53  51  96 NW5       29.92S
HORSETHIEF CYN   N/A     55  48  76 CALM      29.91S
PERRIS           N/A     58  54  86 S2        29.93S
HEMET EAST       N/A     57  48  71 CALM      29.93F
FRENCH VALLEY  CLOUDY    54  52  94 CALM      29.93S VSB 1/4
TEMECULA         N/A     56  55  96 CALM      29.98S

$$

SAN BERNARDINO AND RIVERSIDE COUNTY MOUNTAINS

CITY           SKY/WX    TMP DP  RH WIND       PRES   REMARKS
BIG BEAR AP    PTCLDY    36  25  64 CALM      30.19S
ANGELUS OAKS     N/A     57  29  33 CALM      29.78S
PINE COVE        N/A     61  25  25 CALM      29.82F

$$

SOUTHERN DESERT INCLUDING THE COACHELLA VALLEY

CITY           SKY/WX    TMP DP  RH WIND       PRES   REMARKS
PALM SPRINGS   PTCLDY    72  52  49 CALM      29.78S
PALM DESERT      N/A     74  52  45 CALM      28.82S
THERMAL        PTCLDY    78  48  34 NW10      29.72R
BLYTHE         CLEAR     71  29  21 NW7       29.75S
IMPERIAL AP    PTCLDY    71  39  31 W5        29.71F
EL CENTRO NAS  CLEAR     72  32  23 W10       29.74S
YUMA AZ        PTCLDY    74  46  36 CALM      29.74

$$

UPPER DESERT

CITY           SKY/WX    TMP DP  RH WIND       PRES   REMARKS
VICTORVILLE AP PTCLDY    61  25  25 CALM      29.97S
HESPERIA         N/A     58  31  35 W3        29.98R
PALMDALE       PTCLDY    61  43  51 S7        29.95S
LANCASTER      PTCLDY    62  46  55 CALM      29.94S
EDWARDS AFB    PTCLDY    61  44  53 CALM      29.91S
DAGGETT        CLEAR     67  33  28 W10       29.90S
29 PALMS N     CLEAR     72  26  18 W14       29.95R
NEEDLES        CLEAR     75  13   9 S3        29.79R

$$

REGIONAL REPORTS

CITY           SKY/WX    TMP DP  RH WIND       PRES   REMARKS
SANTA BARBARA  MOCLDY    55  55 100 NW6       29.91S
SANDBERG       MOCLDY    64  47  53 NW15      30.05F
LAS VEGAS NV   PTCLDY    73  21  14 SW3       29.89R
PHOENIX AZ     PTCLDY    74  34  23 E6        29.79R
TIJUANA        CLOUDY    59  54  82 W5        29.95
ENSENADA NW      N/A     60  32  35 W1        29.90S

$$

OFFSHORE ISLANDS

CITY           SKY/WX    TMP DP  RH WIND       PRES   REMARKS
CATALINA ARPT  PTCLDY    56  50  80 N5        29.92F
SAN NICOLAS IS CLOUDY    52  50  93 W15       29.92F FOG

$$

MARINE AND OFFSHORE BUOY REPORTS

STATION/POSITION SKY/WX   TEMP    WIND        PRES    VSBY  SWELL
                          AIR SEA DIR/SP/G                  HT/PER/DIR
                          (F)     (DEG/KT/KT) (MB)    (MI)  (FT/S/D)
TANNER BANKS               57 59  320/ 17/ 19 1013.5F         3/280/11
S CLEMENTE BASIN           59 62   10/  2/  4 1013.5F         5/260/17
SAN NICOLAS IS.               58                N/A           2/230/18
SO. S. ROSA ISLA           54 56  320/ 21/ 27 1013.3F         3/240/17
W. S. BARBARA CH           53 54  310/ 25/ 31 1013.1F
M. S. BARBARA CH           57 57  350/  8/ 10 1013.6R         2/250/ 6
S. MONICA BASIN            58 62  350/  2/  4 1012.9F         3/240/17
S PEDRO CHANNEL               62                N/A           2/250/18
CMP PENDLETON NS              60                N/A           2/230/18
OCEANSIDE OFFSHR              62                N/A           2/220/17
TORREY PINES OTR              64                N/A           2/220/17
SAN DIEGO BAY                 68              1013.7F
POINT LOMA SOUTH              65                N/A           2/200/14

$$




USA.gov is the U.S. government's official web portal to all federal, state and local government web resources and services.